Weather History for Ketchikan, AK

Change the Weather History Date:

Friday, January 25, 2013

  Actual Average Record
Temperature  
Mean Temperature 42 °F -  
Max Temperature 44 °F 39 °F 49 °F (1961)
Min Temperature 39 °F 28 °F 0 °F (1997)
Degree Days  
Heating Degree Days 24    
Moisture  
Dew Point 38 °F    
Average Humidity 91    
Maximum Humidity 100    
Minimum Humidity 81    
Precipitation  
Precipitation 1.09 in - - ()
Sea Level Pressure  
Sea Level Pressure 29.57 in    
Wind  
Wind Speed 13 mph (SE)    
Max Wind Speed 22 mph    
Max Gust Speed 31 mph    
Visibility 8 miles    
Events Rain    
Averages and records for this station are not official NWS values.
T = Trace of Precipitation, MM = Missing Value Source: NWS Daily Summary

Daily Weather History Graph

Daily Weather History Graph

Search for Another Location

Airport:

Trip Planner

Search our weather history database for the weather conditions in past years. The results will help you decide how hot, cold, wet, or windy it might be!

Date:

Astronomy

Jan. 25, 2013 Rise Set
Actual Time 7:50 AM AKST 4:09 PM AKST
Civil Twilight 7:08 AM AKST 4:50 PM AKST
Nautical Twilight 6:23 AM AKST 5:35 PM AKST
Astronomical Twilight 5:40 AM AKST 6:18 PM AKST
Moon 3:13 PM AKST (1/25) 6:35 AM AKST (1/25)
Length of Visible Light 9h 41m
Length of Day
8h 18m
Waxing Gibbous, 98% of the Moon is Illuminated
Jan 25
Waxing Gibbous
Jan 26
Full
Feb 3
Last Quarter
Feb 9
New
Feb 17
First Quarter

Hourly Weather History & Observations

Time (AKST) Temp. Windchill Dew Point Humidity Pressure Visibility Wind Dir Wind Speed Gust Speed Precip Events Conditions
12:53 AM 44.1 °F 37.1 °F 39.9 °F 85% 29.47 in 10.0 mi SE 15.0 mph - 0.01 in   Overcast
1:53 AM 44.1 °F 39.0 °F 39.0 °F 82% 29.49 in 10.0 mi SSE 9.2 mph 18.4 mph N/A   Overcast
2:19 AM 44.6 °F 36.9 °F 39.2 °F 81% 29.50 in 10.0 mi SE 18.4 mph 27.6 mph N/A   Overcast
3:18 AM 44.6 °F 36.9 °F 39.2 °F 81% 29.50 in 10.0 mi SSE 18.4 mph 31.1 mph N/A   Overcast
3:34 AM 42.8 °F 35.1 °F 37.4 °F 81% 29.51 in 8.0 mi SE 16.1 mph 25.3 mph 0.01 in Rain Light Rain
3:53 AM 42.1 °F 35.2 °F 39.0 °F 89% 29.50 in 6.0 mi SE 12.7 mph - 0.03 in Rain Rain
4:06 AM 41.0 °F 33.9 °F 39.2 °F 93% 29.49 in 7.0 mi SE 12.7 mph - 0.01 in Rain Light Rain
4:22 AM 41.0 °F 33.5 °F 37.4 °F 87% 29.49 in 8.0 mi SE 13.8 mph 25.3 mph 0.02 in Rain Light Rain
4:53 AM 41.0 °F 32.8 °F 37.9 °F 89% 29.48 in 10.0 mi SSE 16.1 mph 24.2 mph 0.11 in Rain Light Rain
5:30 AM 41.0 °F 32.8 °F 37.4 °F 87% 29.48 in 10.0 mi SSE 16.1 mph 23.0 mph 0.02 in Rain Light Rain
5:43 AM 41.0 °F 33.1 °F 37.4 °F 87% 29.48 in 9.0 mi SSE 15.0 mph 24.2 mph 0.04 in Rain Light Rain
5:53 AM 41.0 °F 31.4 °F 37.9 °F 89% 29.49 in 10.0 mi SE 21.9 mph 26.5 mph 0.05 in Rain Light Rain
6:03 AM 41.0 °F 33.1 °F 37.4 °F 87% 29.48 in 10.0 mi SE 15.0 mph 26.5 mph 0.01 in Rain Light Rain
6:53 AM 41.0 °F 31.6 °F 39.2 °F 93% 29.49 in 10.0 mi SE 20.7 mph 25.3 mph N/A Rain Light Rain
7:53 AM 41.0 °F 32.5 °F 37.4 °F 87% 29.50 in 10.0 mi SE 17.3 mph 25.3 mph N/A Rain Light Rain
8:53 AM 41.0 °F 33.9 °F 37.9 °F 89% 29.51 in 10.0 mi SSE 12.7 mph 25.3 mph 0.17 in Rain Rain
9:53 AM 41.0 °F 31.6 °F 37.4 °F 87% 29.53 in 8.0 mi SE 20.7 mph 29.9 mph N/A Rain Rain
10:53 AM 39.9 °F 30.2 °F 37.0 °F 89% 29.55 in 4.0 mi ESE 20.7 mph 26.5 mph 0.14 in Rain Rain
11:53 AM 41.0 °F 34.7 °F 39.0 °F 93% 29.55 in 3.0 mi SSE 10.4 mph - 0.12 in Rain Rain
12:53 PM 41.0 °F 34.3 °F 39.0 °F 93% 29.55 in 4.0 mi SE 11.5 mph 20.7 mph 0.19 in Rain Rain
1:56 PM 39.2 °F 32.5 °F 37.4 °F 93% 29.56 in 3.0 mi SE 10.4 mph - 0.01 in Rain Heavy Rain
2:53 PM 39.9 °F 32.1 °F 37.9 °F 93% 29.57 in 7.0 mi SE 13.8 mph - 0.12 in Rain Light Rain
3:53 PM 39.9 °F 33.9 °F 37.9 °F 93% 29.58 in 4.0 mi SSE 9.2 mph - 0.04 in Rain Light Rain
4:53 PM 39.9 °F 36.7 °F 39.0 °F 97% 29.60 in 10.0 mi South 4.6 mph - 0.01 in   Overcast
5:53 PM 39.9 °F 34.5 °F 39.0 °F 97% 29.62 in 6.0 mi SE 8.1 mph - 0.02 in   Overcast
6:05 PM 39.2 °F 35.0 °F 39.2 °F 100% 29.61 in 2.5 mi SE 5.8 mph - 0.00 in Rain Light Rain
6:12 PM 39.2 °F 35.0 °F 39.2 °F 100% 29.61 in 3.0 mi SSE 5.8 mph - 0.00 in Rain Light Rain
6:53 PM 39.9 °F 36.7 °F 39.0 °F 97% 29.63 in 5.0 mi South 4.6 mph - 0.00 in   Overcast
7:53 PM 39.9 °F 35.1 °F 39.0 °F 97% 29.64 in 6.0 mi SE 6.9 mph - 0.02 in   Overcast
8:53 PM 39.9 °F 35.1 °F 37.9 °F 93% 29.66 in 8.0 mi SE 6.9 mph - 0.01 in Rain Light Rain
9:28 PM 39.2 °F 34.2 °F 37.4 °F 93% 29.66 in 6.0 mi SE 6.9 mph - 0.00 in Rain Light Rain
9:39 PM 39.2 °F 35.9 °F 37.4 °F 93% 29.66 in 2.5 mi SSE 4.6 mph - 0.01 in Rain Light Rain
9:46 PM 39.2 °F 35.0 °F 37.4 °F 93% 29.66 in 4.0 mi SSE 5.8 mph - 0.01 in Rain Light Rain
9:53 PM 39.0 °F 32.8 °F 37.9 °F 96% 29.67 in 10.0 mi SE 9.2 mph - 0.01 in   Overcast
10:38 PM 39.2 °F 35.0 °F 37.4 °F 93% 29.68 in 10.0 mi SE 5.8 mph - 0.00 in   Overcast
10:48 PM 39.2 °F 34.2 °F 37.4 °F 93% 29.67 in 10.0 mi SSE 6.9 mph - 0.00 in Rain Light Rain
10:53 PM 39.0 °F 34.8 °F 37.9 °F 96% 29.68 in 10.0 mi South 5.8 mph - 0.00 in Rain Light Rain
11:47 PM 39.2 °F 35.0 °F 37.4 °F 93% 29.69 in 9.0 mi SSE 5.8 mph - 0.04 in   Overcast
11:53 PM 39.0 °F 34.8 °F 37.9 °F 96% 29.69 in 10.0 mi SSE 5.8 mph - 0.04 in   Overcast